Location: Manitoulin Island
(45.7026°N, 82.0372°W)
Time: 06:18:51
(UTC-04:00)

ISS - Visible Passes

Search period start: 28 May 2022 00:00
Search period end: 07 June 2022 00:00
Orbit: 414 x 421 km, 51.6° (Epoch: 28 May)

Date Brightness Start Highest point End Pass type
(mag) Time Alt. Az. Time Alt. Az. Time Alt. Az.
28 May -3.2 22:48:40 10° WNW 22:51:52 42° SW 22:53:07 28° SSE visible
29 May -3.7 22:00:25 10° WNW 22:03:46 69° SSW 22:06:43 13° SE visible
29 May -1.1 23:39:06 10° WSW 23:39:38 11° SW 23:39:38 11° SW visible
30 May -1.7 22:49:42 10° W 22:52:01 18° SW 22:53:16 15° SSW visible
31 May -2.3 22:01:04 10° W 22:03:59 28° SW 22:06:54 10° SSE visible
02 Jun -1.1 22:02:46 10° WSW 22:03:55 11° SW 22:05:05 10° SSW visible
